Location: Melbourne
(37.8666°S, 145.1333°E)
Time: 09:12:19
(UTC+11:00)

Iridium 21 - Visible Passes

Search period start: 19 January 2017 00:00
Search period end: 29 January 2017 00:00
Orbit: 776 x 779 km, 86.4° (Epoch: 18 January)

Date Brightness Start Highest point End Pass type
(mag) Time Alt. Az. Time Alt. Az. Time Alt. Az.
19 Jan 6.1 00:51:55 56° SSW 00:51:55 56° SSW 00:56:09 10° S visible
20 Jan 6.2 00:18:26 47° SE 00:18:26 47° SE 00:22:32 10° SSE visible
20 Jan 7.7 01:58:54 15° WSW 01:58:54 15° WSW 02:01:31 10° SW visible
20 Jan 6.9 23:44:57 28° ESE 23:44:57 28° ESE 23:48:33 10° SSE visible
21 Jan 7.1 01:25:25 27° WSW 01:25:25 27° WSW 01:29:11 10° SSW visible
21 Jan 7.5 23:11:28 16° ESE 23:11:28 16° ESE 23:13:56 10° SE visible
22 Jan 6.4 00:51:56 46° SW 00:51:56 46° SW 00:56:08 10° S visible
23 Jan 6.0 00:18:26 59° SSE 00:18:26 59° SSE 00:22:43 10° S visible
23 Jan 8.1 01:58:54 10° WSW 01:58:54 10° WSW 01:59:19 10° WSW visible
23 Jan 6.4 23:44:56 39° ESE 23:44:56 39° ESE 23:48:58 10° SSE visible
24 Jan 7.5 01:25:23 19° WSW 01:25:23 19° WSW 01:28:42 10° SSW visible
24 Jan 7.0 23:11:25 23° ESE 23:11:25 23° ESE 23:14:48 10° SSE visible
25 Jan 6.8 00:51:52 34° WSW 00:51:52 34° WSW 00:56:00 10° SSW visible
25 Jan 7.6 22:37:53 12° ESE 22:37:53 12° ESE 22:39:37 10° SE visible
26 Jan 6.0 00:18:21 58° SW 00:18:21 58° SW 00:22:47 10° S visible
26 Jan 5.9 23:44:49 56° SE 23:44:49 56° SE 23:49:15 10° S visible
27 Jan 7.9 01:25:17 13° WSW 01:25:17 13° WSW 01:27:45 10° SW visible
27 Jan 6.5 23:11:17 33° ESE 23:11:17 33° ESE 23:15:21 10° SSE visible
28 Jan 7.3 00:51:44 25° WSW 00:51:44 25° WSW 00:55:40 10° SSW visible
28 Jan 7.2 22:37:44 18° ESE 22:37:44 18° ESE 22:40:55 10° SE visible
